Location: Eexterzandvoort
(53.0303°N, 6.7884°E)
Time: 05:37:55
(UTC+00:00)

NOSS 2-1 (C) - Pass Details

Date: 19 May 2025
Orbit: 378 x 1699 km, 63.3° (Epoch: 14 June)

Event Time Altitude Azimuth Distance (km) Brightness Sun altitude
Exits shadow 22:55:05 41° 209° (SSW) 611 3.2 -16.6°
Maximum altitude 22:56:02 73° 135° (SE) 424 2.5 -16.6°
Drops below altitude 10° 22:59:01 10° 50° (NE) 1,406 5.8 -16.7°
Sets 23:00:58 0° 49° (NE) 2,266 7.0 -16.7°
